Location: Harwich
(41.7160°N, 69.9939°W)
Time: 20:12:03
(UTC+01:00)

Vanguard 1 - Visible Passes

Search period start: 07 February 2023 00:00
Search period end: 17 February 2023 00:00
Orbit: 650 x 3831 km, 34.2° (Epoch: 07 February)

Date Brightness Start Highest point End Pass type
(mag) Time Alt. Az. Time Alt. Az. Time Alt. Az.
07 Feb 11.9 09:02:26 25° SE 09:02:26 25° SE 09:07:38 10° E visible
07 Feb 11.4 11:15:08 19° WSW 11:20:30 55° S 11:33:11 10° E visible
08 Feb 11.5 09:22:00 33° SE 09:22:00 33° SE 09:28:47 10° E visible
08 Feb 11.5 11:34:41 14° WSW 11:41:06 56° S 11:54:12 10° ESE visible
09 Feb 11.0 09:41:32 41° SSE 09:41:32 41° SSE 09:49:49 10° E visible
09 Feb 11.6 11:54:26 10° WSW 12:01:43 53° S 12:15:08 10° ESE visible
10 Feb 10.7 10:01:04 46° S 10:01:36 46° SSE 10:10:48 10° E visible
11 Feb 10.6 10:20:35 42° SSW 10:22:05 49° S 10:31:44 10° ESE visible
12 Feb 12.5 08:27:26 14° ESE 08:27:26 14° ESE 08:28:40 10° E visible
12 Feb 10.8 10:40:06 34° SW 10:42:37 49° S 10:52:37 10° ESE visible
13 Feb 12.1 08:46:56 20° ESE 08:46:56 20° ESE 08:49:35 10° E visible
13 Feb 11.1 10:59:38 26° WSW 11:03:11 47° S 11:13:24 10° ESE visible
14 Feb 11.7 09:06:28 27° ESE 09:06:28 27° ESE 09:10:25 10° ESE visible
14 Feb 11.3 11:19:09 18° WSW 11:23:46 42° S 11:34:03 10° ESE visible
15 Feb 11.2 09:25:59 34° SE 09:25:59 34° SE 09:31:13 10° ESE visible
15 Feb 11.6 11:38:40 12° WSW 11:44:22 37° SSW 11:54:30 10° SE visible
16 Feb 10.9 09:45:31 39° SSE 09:45:31 39° SSE 09:51:57 10° ESE visible
16 Feb 11.9 11:59:00 10° WSW 12:05:00 31° SSW 12:14:41 10° SE visible
